Regional Weather Roundup
Issued by NWS

Home | Current Version | Previous Version | Graphics & Text | Print | Product List | Glossary On
Versions: 1 2 3 4 5 6 7 8 9 10 11 12 13 14 15 16 17 18 19 20 21 22 23 24 25 26 27 28 29 30 31 32 33 34 35 36 37 38 39 40 41 42 43 44 45 46 47 48 49 50
000
ASUS43 KMPX 060701
RWRMN
WEATHER ROUNDUP FOR MINNESOTA
NATIONAL WEATHER SERVICE TWIN CITIES/CHANHASSEN MN
100 AM CST TUE DEC 06 2016


NOTE: "FAIR" INDICATES FEW OR NO CLOUDS BELOW 12,000 FEET WITH NO
SIGNIFICANT WEATHER AND/OR OBSTRUCTIONS TO VISIBILITY. N/A MEANS
CURRENT SKY AND/OR WEATHER CONDITIONS ARE NOT AVAILABLE.

MNZ060>063-068>070-060800-
   Twin Cities Metro

CITY           SKY/WX    TMP DP  RH WIND       PRES   REMARKS
TWIN CITIES    CLOUDY    36  28  73 SW17G24   29.69R
ST PAUL        CLOUDY    37  31  78 SW14      29.70R
CRYSTAL        CLOUDY    35  26  69 W17G23    29.67R WCI  25
BLAINE         CLOUDY    37  30  75 SW13G23   29.67R
LAKEVILLE      CLOUDY    34  30  86 W12       29.70R WCI  25
EDEN PRAIRIE   CLOUDY    35  27  72 W14G25    29.69R WCI  26
SOUTH ST PAUL  CLOUDY    37  31  77 SW12      29.69R
LAKE ELMO      CLOUDY    37  32  81 SW18      29.68R
$$
MNZ001>005-007-008-013>017-022>024-027-028-060800-
   Northwest Minnesota

CITY           SKY/WX    TMP DP  RH WIND       PRES   REMARKS
BEMIDJI        DRIZZLE   33  31  92 S18G25    29.38S WCI  21
HALLOCK        LGT SNOW  30  30 100 N16       29.41F WCI  19
ROSEAU         SNOW      30  27  86 NE18      29.40F VSB 1/2 WCI  18
WARROAD        SNOW      30  27  86 NE20G25   29.42F VSB 1/2 WCI  18
THIEF RVR FALL LGT SNOW  30  29  96 E8        29.33F FOG     WCI  22
CROOKSTON      LGT SNOW  30  30 100 E5        29.33F WCI  25
FOSSTON        LGT SNOW  30  30 100 S21G29    29.36S WCI  17
DETROIT LAKES  CLOUDY    28  27  93 SW22      29.45R WCI  15
MOORHEAD       CLOUDY    25  21  86 SW22G29   29.45R WCI  10
PARK RAPIDS    CLOUDY    29  23  78 SW22G32   29.45R WCI  15
$$
MNZ006-009>011-018-025>026-060800-
   North Central Minnesota

CITY           SKY/WX    TMP DP  RH WIND       PRES   REMARKS
BAUDETTE       LGT SNOW  31  29  92 E16       29.40F FOG     WCI  20
FLAG ISLAND    LGT SNOW  30  28  93 NE13      29.47F WCI  20
INTL FALLS     FRZ RAIN  33  30  88 SE16      29.49S FOG     WCI  23
WASKISH        DRIZZLE   34  32  93 SE10G16   29.38F WCI  26
BIG FORK       LGT RAIN  36  32  87 SE10G17   29.45S
LONGVILLE      CLOUDY    34  28  80 S16G24    29.46R WCI  23
GRAND RAPIDS   CLOUDY    35  32  88 S17       29.48F WCI  25
CRANE LAKE     CLOUDY    32  30  93 CALM      29.54F
ORR            CLOUDY    34  30  86 SE10      29.49S WCI  26
COOK           CLOUDY    34  32  93 SE9G18    29.51F FOG     WCI  26
$$
MNZ012-019>021-037-060800-
   Northeast Minnesota

CITY           SKY/WX    TMP DP  RH WIND       PRES   REMARKS
DULUTH         CLOUDY    35  33  92 S14       29.56F WCI  26
ELY            CLOUDY    34  32  93 SE13      29.55F WCI  25
HIBBING        CLOUDY    33  31  92 SE17G24   29.51F WCI  22
EVELETH        CLOUDY    35  33  91 SE15      29.54F WCI  25
DULUTH HARBOR  CLOUDY    37  34  87 S17       29.61F
TWO HARBORS    CLOUDY    37  34  87 S9        29.60F
SILVER BAY     CLOUDY    37  34  87 SE7       29.61F
GRAND MARAIS     N/A     41  38  89 E10       29.70F
G MARAIS ARPRT SNOW      34  30  86 E9G17     29.66F VSB 1/4 WCI  26
$$
MNZ029>031-032-039>041-046>048-054>057-064-060800-
   West Central Minnesota

CITY           SKY/WX    TMP DP  RH WIND       PRES   REMARKS
FERGUS FALLS   CLOUDY    23  18  80 W28       29.60R WCI   6
WHEATON        CLEAR     21  16  79 W25G32    29.64R WCI   4
MORRIS         MOCLDY    21  16  79 W24G33    29.63S WCI   4
ALEXANDRIA     CLOUDY    24  19  81 W24G36    29.59R WCI   8
ELBOW LAKE     CLOUDY    22  17  81 SW25G36   29.61R WCI   5
WADENA         CLOUDY    25  21  86 SW18G26   29.51R WCI  11
GLENWOOD       CLOUDY    25  19  80 SW25G37   29.60S WCI   9
APPLETON       MOCLDY    23  16  74 W26G35    29.67S WCI   6
BENSON         CLOUDY    25  18  74 W22G31    29.67R WCI  10
ORTONVILLE     CLOUDY    19  12  73 W14G25    29.69R WCI   6
MADISON        CLOUDY    25  18  74 W26G33    29.72S WCI   9
WILLMAR        CLOUDY    28  21  74 W24G35    29.69S WCI  14
$$
MNZ033>034-036-042>043-049>051-058-059-060800-
   Central Minnesota

CITY           SKY/WX    TMP DP  RH WIND       PRES   REMARKS
ST CLOUD       CLOUDY    32  26  78 SW10      29.63R WCI  24
PAYNESVILLE    CLOUDY    28  25  91 SW17G25   29.65S WCI  15
AITKIN         CLOUDY    36  28  75 S15G23    29.52R
PINE RIVER     CLOUDY    30  27  86 SW17G30   29.55R WCI  18
BRAINERD       CLOUDY    32  27  81 SW24G32   29.54R WCI  19
STAPLES        CLOUDY    27  23  86 SW16G26   29.54R WCI  14
LONG PRAIRIE   CLOUDY    27  21  80 S17G31    29.59R WCI  14
LITTLE FALLS   CLOUDY    30  23  74 SW14G22   29.60R WCI  20
LITCHFIELD     CLOUDY    30  25  80 W12G22    29.67S WCI  21
BUFFALO        CLOUDY    32  26  77 SW9G17    29.67S WCI  24
MAPLE LAKE     CLOUDY    33  28  83 SW12G17   29.66S WCI  24
$$
MNZ037-044-045-052-053-060800-
   East Central Minnesota

CITY           SKY/WX    TMP DP  RH WIND       PRES   REMARKS
PRINCETON      CLOUDY    36  28  75 SW10G21   29.64R
MORA           CLOUDY    34  28  80 SW12G20   29.63R WCI  25
CAMBRIDGE      CLOUDY    37  28  70 SW14G22   29.63R
RUSH CITY      CLOUDY    36  30  80 SW15G21   29.64R
MOOSE LAKE     CLOUDY    36  32  87 S9G18     29.54F
HINCKLEY       CLOUDY    36  34  93 S13G20    29.60R
CLOQUET        CLOUDY    34  32  93 SE7       29.56S WCI  28
MCGREGOR       CLOUDY    34  32  93 S12G20    29.54S WCI  25
$$
MNZ071>073-080-081-089-090-097-098-060800-
   Southwest Minnesota

CITY           SKY/WX    TMP DP  RH WIND       PRES   REMARKS
MONTEVIDEO     CLOUDY    25  18  74 NW18G28   29.72R WCI  11
GRANITE FALLS  CLOUDY    27  21  77 W28       29.75R WCI  11
CANBY          FLURRIES  23  16  75 W24G37    29.75R WCI   7
MARSHALL       CLOUDY    24  17  74 W31G39    29.73R WCI   7
REDWOOD FALLS  CLOUDY    28  20  71 W15       29.72R WCI  16
OLIVIA         CLOUDY    30  25  80 W24G30    29.70R WCI  16
PIPESTONE      MOCLDY    21  16  79 W26G35    29.76R WCI   4
WINDOM         CLOUDY    28  21  74 W20G26    29.74R WCI  15
WORTHINGTON    CLOUDY    24  18  77 W28G37    29.76R WCI   7
JACKSON        CLOUDY    28  23  80 W20G28    29.76R WCI  15
TRACY          CLOUDY    26  21  79 W16G24    29.74R WCI  14
SLAYTON        CLOUDY    24  19  83 W18G28    29.74R WCI  10
$$
MNZ065>067-074>077-082>085-091>093-060800-
   South Central Minnesota

CITY           SKY/WX    TMP DP  RH WIND       PRES   REMARKS
MANKATO        CLOUDY    32  27  81 W14       29.74R WCI  22
NEW ULM        CLOUDY    30  25  80 W24       29.73R WCI  16
ST JAMES       CLOUDY    30  25  80 W18G24    29.76R WCI  18
FAIRMONT       CLOUDY    31  26  82 W16       29.76R WCI  20
GLENCOE        CLOUDY    32  29  89 W9G17     29.68S WCI  24
FARIBAULT      CLOUDY    36  30  80 W12G18    29.72S
OWATONNA       CLOUDY    36  30  80 SW14      29.72S
WASECA         CLOUDY    32  30  93 W16G22    29.73S WCI  21
ALBERT LEA     CLOUDY    37  36  93 W9        29.73S
$$
MNZ078>079-086>088-094>096-060800-
   Southeast Minnesota

CITY           SKY/WX    TMP DP  RH WIND       PRES   REMARKS
ROCHESTER      LGT SNOW  33  32  96 S16       29.73S FOG     WCI  23
RED WING       LGT RAIN  36  34  93 S12       29.72R
STANTON        CLOUDY    37  31  78 SW12      29.70R
DODGE CENTER   LGT SNOW  32  32 100 S15       29.72R WCI  22
WINONA         CLOUDY    36  32  87 S5        29.77F
AUSTIN         LGT SNOW  34  30  86 S13       29.74R WCI  25
PRESTON        LGT SNOW  31  30  94 S17       29.75F WCI  20
$$
ABBREVIATIONS USED IN REMARKS
   TC - TEMPERATURES IN CELSIUS
  WCI - WIND CHILL INDEX
   HX - HEAT INDEX
  VSB - VISIBILITY
$$




USA.gov is the U.S. government's official web portal to all federal, state and local government web resources and services.